| time (UTC) | temp F | wind direction | speed MPH | gust MPH | rain 1hr in | rain 24hr in | rain mn in | humidity % | barometer mb |
| 20260504041000 | 51 | 220 | 4.0 | 13.0 | 0.00 | 0.00 | 0.00 | 76 | 1004.2 |
| 20260504040458 | 51 | 271 | 6.0 | 13.0 | 0.00 | 0.00 | 0.00 | 76 | 1004.2 |
| 20260504035959 | 51 | 218 | 2.0 | 10.0 | 0.00 | 0.00 | 0.00 | 75 | 1004.2 |
| 20260504035458 | 51 | 180 | 3.0 | 13.0 | 0.00 | 0.00 | 0.00 | 75 | 1004.3 |
| 20260504034959 | 51 | 186 | 5.0 | 13.0 | 0.00 | 0.00 | 0.00 | 75 | 1004.3 |
| 20260504034458 | 51 | 266 | 6.0 | 10.0 | 0.00 | 0.00 | 0.00 | 75 | 1004.4 |
| 20260504033958 | 51 | 166 | 4.0 | 10.0 | 0.00 | 0.00 | 0.00 | 74 | 1004.6 |
| 20260504033458 | 51 | 217 | 5.0 | 10.0 | 0.00 | 0.00 | 0.00 | 74 | 1004.7 |
| 20260504015000 | 53 | 176 | 1.0 | 8.0 | 0.00 | 0.00 | 0.00 | 68 | 1004.9 |
| 20260504014459 | 53 | 234 | 2.0 | 6.0 | 0.00 | 0.00 | 0.00 | 68 | 1005.0 |
| 20260504013959 | 53 | 225 | 1.0 | 7.0 | 0.00 | 0.00 | 0.00 | 67 | 1004.9 |
| 20260504013459 | 53 | 210 | 1.0 | 10.0 | 0.00 | 0.00 | 0.00 | 67 | 1004.9 |
| 20260504013000 | 53 | 214 | 4.0 | 10.0 | 0.00 | 0.00 | 0.00 | 67 | 1005.0 |
| 20260504012459 | 53 | 226 | 3.0 | 8.0 | 0.00 | 0.00 | 0.00 | 67 | 1004.9 |
| 20260504011959 | 53 | 228 | 3.0 | 8.0 | 0.00 | 0.00 | 0.00 | 67 | 1004.9 |
| 20260504011459 | 54 | 183 | 3.0 | 7.0 | 0.00 | 0.00 | 0.00 | 66 | 1004.9 |
| 20260504010959 | 54 | 188 | 1.0 | 11.0 | 0.00 | 0.00 | 0.00 | 66 | 1005.0 |
| 20260504010459 | 54 | 239 | 4.0 | 10.0 | 0.00 | 0.00 | 0.00 | 66 | 1005.0 |
| 20260504005959 | 54 | 157 | 2.0 | 10.0 | 0.00 | 0.00 | 0.00 | 66 | 1004.9 |
| 20260504005458 | 54 | 188 | 4.0 | 11.0 | 0.00 | 0.00 | 0.00 | 66 | 1004.9 |
| 20260504004958 | 54 | 217 | 5.0 | 11.0 | 0.00 | 0.00 | 0.00 | 66 | 1004.9 |
| 20260504004458 | 54 | 230 | 2.0 | 11.0 | 0.00 | 0.00 | 0.00 | 65 | 1005.1 |
| 20260504003958 | 54 | 228 | 4.0 | 11.0 | 0.00 | 0.00 | 0.00 | 65 | 1005.1 |
| 20260504003458 | 54 | 228 | 3.0 | 6.0 | 0.00 | 0.00 | 0.00 | 65 | 1005.1 |
| 20260504002958 | 54 | 190 | 2.0 | 8.0 | 0.00 | 0.00 | 0.00 | 64 | 1005.0 |
| 20260504002458 | 54 | 168 | 3.0 | 8.0 | 0.00 | 0.00 | 0.00 | 64 | 1005.1 |
| 20260504001958 | 55 | 240 | 3.0 | 10.0 | 0.00 | 0.00 | 0.00 | 63 | 1005.1 |
| 20260504001459 | 55 | 252 | 4.0 | 14.0 | 0.00 | 0.00 | 0.00 | 63 | 1005.1 |
| 20260504000958 | 55 | 198 | 8.0 | 14.0 | 0.00 | 0.00 | 0.00 | 63 | 1005.2 |
| 20260504000459 | 55 | 236 | 2.0 | 16.0 | 0.00 | 0.00 | 0.00 | 63 | 1005.2 |
| 20260503235959 | 55 | 249 | 8.0 | 16.0 | 0.00 | 0.00 | 0.00 | 62 | 1005.3 |
| 20260503235458 | 55 | 221 | 6.0 | 11.0 | 0.00 | 0.00 | 0.00 | 63 | 1005.4 |
| 20260503234958 | 55 | 217 | 3.0 | 11.0 | 0.00 | 0.00 | 0.00 | 63 | 1005.5 |
| 20260503234458 | 55 | 188 | 4.0 | 11.0 | 0.00 | 0.00 | 0.00 | 63 | 1005.4 |
| 20260503233958 | 55 | 210 | 3.0 | 10.0 | 0.00 | 0.00 | 0.00 | 63 | 1005.5 |
| 20260503233458 | 55 | 211 | 1.0 | 14.0 | 0.00 | 0.00 | 0.00 | 62 | 1005.4 |
| 20260503232958 | 55 | 201 | 7.0 | 14.0 | 0.00 | 0.00 | 0.00 | 62 | 1005.6 |
| 20260503232458 | 56 | 196 | 4.0 | 9.0 | 0.00 | 0.00 | 0.00 | 61 | 1005.6 |
| 20260503231958 | 56 | 184 | 3.0 | 11.0 | 0.00 | 0.00 | 0.00 | 62 | 1005.6 |
| 20260503213501 | 55 | 303 | 6.0 | 14.0 | 0.00 | 0.00 | 0.00 | 66 | 1006.9 |
| 20260503212959 | 55 | 235 | 5.0 | 10.0 | 0.00 | 0.00 | 0.00 | 67 | 1007.0 |
| 20260503212501 | 55 | 220 | 5.0 | 10.0 | 0.00 | 0.00 | 0.00 | 67 | 1007.0 |
| 20260503211959 | 54 | 236 | 3.0 | 14.0 | 0.00 | 0.00 | 0.00 | 69 | 1007.0 |
| 20260503211459 | 54 | 211 | 4.0 | 15.0 | 0.00 | 0.00 | 0.00 | 68 | 1007.1 |
| 20260503210959 | 54 | 266 | 5.0 | 15.0 | 0.00 | 0.00 | 0.00 | 69 | 1007.1 |
| 20260503210500 | 54 | 210 | 8.0 | 14.0 | 0.00 | 0.00 | 0.00 | 68 | 1007.2 |
| 20260503210000 | 54 | 211 | 5.0 | 16.0 | 0.00 | 0.00 | 0.00 | 68 | 1007.3 |
| 20260503205458 | 53 | 233 | 8.0 | 17.0 | 0.00 | 0.00 | 0.00 | 69 | 1007.3 |
| 20260503204959 | 53 | 194 | 7.0 | 17.0 | 0.00 | 0.00 | 0.00 | 70 | 1007.4 |
| 20260503204458 | 53 | 224 | 7.0 | 15.0 | 0.00 | 0.00 | 0.00 | 71 | 1007.5 |
| 20260503203959 | 53 | 153 | 7.0 | 15.0 | 0.00 | 0.00 | 0.00 | 70 | 1007.7 |
| 20260503203459 | 53 | 235 | 7.0 | 18.0 | 0.00 | 0.00 | 0.00 | 69 | 1007.7 |
| 20260503202959 | 53 | 234 | 10.0 | 18.0 | 0.00 | 0.00 | 0.00 | 68 | 1007.8 |
| 20260503202459 | 53 | 286 | 9.0 | 18.0 | 0.00 | 0.00 | 0.00 | 67 | 1007.7 |
| 20260503201958 | 54 | 251 | 8.0 | 23.0 | 0.00 | 0.00 | 0.00 | 65 | 1007.9 |
| 20260503201458 | 54 | 219 | 8.0 | 17.0 | 0.00 | 0.00 | 0.00 | 64 | 1007.9 |
| 20260503200958 | 54 | 247 | 7.0 | 17.0 | 0.00 | 0.00 | 0.00 | 63 | 1007.9 |
| 20260503200458 | 54 | 224 | 9.0 | 17.0 | 0.00 | 0.00 | 0.00 | 62 | 1007.9 |
| 20260503200001 | 55 | 228 | 9.0 | 17.0 | 0.00 | 0.00 | 0.00 | 61 | 1008.1 |
| 20260503195459 | 55 | 266 | 6.0 | 20.0 | 0.00 | 0.00 | 0.00 | 60 | 1008.3 |
| 20260503195000 | 56 | 242 | 10.0 | 20.0 | 0.00 | 0.00 | 0.00 | 59 | 1008.1 |
| 20260503194459 | 56 | 298 | 9.0 | 17.0 | 0.00 | 0.00 | 0.00 | 59 | 1007.8 |
| 20260503194000 | 57 | 285 | 8.0 | 35.0 | 0.00 | 0.00 | 0.00 | 57 | 1007.9 |
| 20260503193459 | 58 | 247 | 9.0 | 35.0 | 0.00 | 0.00 | 0.00 | 55 | 1007.9 |
| 20260503192959 | 59 | 197 | 6.0 | 18.0 | 0.00 | 0.00 | 0.00 | 56 | 1007.8 |
| 20260503192459 | 60 | 213 | 7.0 | 17.0 | 0.00 | 0.00 | 0.00 | 55 | 1007.7 |
| 20260503191959 | 60 | 271 | 9.0 | 18.0 | 0.00 | 0.00 | 0.00 | 54 | 1007.7 |
| 20260503191459 | 61 | 255 | 5.0 | 18.0 | 0.00 | 0.00 | 0.00 | 55 | 1007.9 |
| 20260503190958 | 60 | 290 | 6.0 | 17.0 | 0.00 | 0.00 | 0.00 | 53 | 1007.9 |
| 20260503190459 | 61 | 211 | 7.0 | 20.0 | 0.00 | 0.00 | 0.00 | 52 | 1008.0 |
| 20260503185959 | 61 | 266 | 7.0 | 24.0 | 0.00 | 0.00 | 0.00 | 55 | 1008.1 |
| 20260503174957 | 61 | 210 | 10.0 | 23.0 | 0.00 | 0.00 | 0.00 | 49 | 1008.9 |
| 20260503174458 | 61 | 238 | 9.0 | 23.0 | 0.00 | 0.00 | 0.00 | 51 | 1008.9 |
| 20260503173958 | 62 | 220 | 9.0 | 21.0 | 0.00 | 0.00 | 0.00 | 50 | 1008.9 |
| 20260503173459 | 62 | 217 | 10.0 | 19.0 | 0.00 | 0.00 | 0.00 | 50 | 1009.0 |
| 20260503172958 | 61 | 266 | 5.0 | 16.0 | 0.00 | 0.00 | 0.00 | 53 | 1009.0 |
| 20260503172458 | 61 | 341 | 7.0 | 16.0 | 0.00 | 0.00 | 0.00 | 52 | 1009.1 |
| 20260503171958 | 61 | 231 | 5.0 | 13.0 | 0.00 | 0.00 | 0.00 | 53 | 1009.2 |
| 20260503130959 | 52 | 249 | 6.0 | 12.0 | 0.00 | 0.00 | 0.00 | 60 | 1010.5 |
| 20260503130458 | 51 | 286 | 5.0 | 11.0 | 0.00 | 0.00 | 0.00 | 61 | 1010.6 |
| 20260503110458 | 39 | 229 | 1.0 | 3.0 | 0.00 | 0.00 | 0.00 | 74 | 1010.7 |
| 20260503090458 | 38 | 199 | 0.0 | 3.0 | 0.00 | 0.00 | 0.00 | 67 | 1011.2 |
| 20260503081459 | 39 | 325 | 1.0 | 3.0 | 0.00 | 0.00 | 0.00 | 63 | 1011.6 |
| 20260503080959 | 39 | 210 | 0.0 | 2.0 | 0.00 | 0.00 | 0.00 | 62 | 1011.4 |
| 20260503080459 | 39 | 276 | 0.0 | 4.0 | 0.00 | 0.00 | 0.00 | 62 | 1011.5 |
| 20260503072458 | 40 | 238 | 4.0 | 9.0 | 0.00 | 0.00 | 0.00 | 60 | 1011.6 |
| 20260503071959 | 40 | 232 | 1.0 | 9.0 | 0.00 | 0.00 | 0.00 | 60 | 1011.6 |
| 20260503071458 | 40 | 271 | 3.0 | 8.0 | 0.00 | 0.00 | 0.00 | 60 | 1011.7 |
| 20260503070959 | 40 | 281 | 1.0 | 7.0 | 0.00 | 0.00 | 0.00 | 59 | 1011.8 |
| 20260503070458 | 40 | 5 | 3.0 | 7.0 | 0.00 | 0.00 | 0.00 | 59 | 1011.9 |
| 20260503054959 | 37 | 205 | 2.0 | 7.0 | 0.00 | 0.00 | 0.00 | 63 | 1012.9 |
| 20260503054459 | 37 | 266 | 1.0 | 4.0 | 0.00 | 0.00 | 0.00 | 64 | 1013.0 |
| 20260503053959 | 37 | 232 | 1.0 | 4.0 | 0.00 | 0.00 | 0.00 | 64 | 1013.0 |
| 20260503053458 | 37 | 216 | 1.0 | 3.0 | 0.00 | 0.00 | 0.00 | 65 | 1013.0 |
| 20260503052959 | 37 | 224 | 0.0 | 3.0 | 0.00 | 0.00 | 0.00 | 65 | 1013.1 |
| 20260503052458 | 37 | 214 | 0.0 | 3.0 | 0.00 | 0.00 | 0.00 | 66 | 1013.1 |
| 20260503051959 | 37 | 211 | 1.0 | 3.0 | 0.00 | 0.00 | 0.00 | 66 | 1013.2 |
| 20260503051458 | 37 | 226 | 0.0 | 2.0 | 0.00 | 0.00 | 0.00 | 66 | 1013.2 |
| 20260503050958 | 37 | 220 | 0.0 | 3.0 | 0.00 | 0.00 | 0.00 | 67 | 1013.2 |
| 20260503050459 | 37 | 189 | 0.0 | 3.0 | 0.00 | 0.00 | 0.00 | 67 | 1013.3 |
| 20260503050002 | 36 | 266 | 0.0 | 1.0 | 0.00 | 0.00 | 0.00 | 68 | 1013.4 |
| 20260503045459 | 36 | 266 | 0.0 | 2.0 | 0.00 | 0.00 | 0.00 | 68 | 1013.4 |
| 20260503044959 | 36 | 266 | 1.0 | 2.0 | 0.00 | 0.00 | 0.00 | 68 | 1013.5 |
| 20260503044458 | 36 | 247 | 0.0 | 0.0 | 0.00 | 0.00 | 0.00 | 68 | 1013.4 |
| 20260503043959 | 36 | 247 | 0.0 | 0.0 | 0.00 | 0.00 | 0.00 | 67 | 1013.4 |
| 20260503043459 | 37 | 247 | 0.0 | 1.0 | 0.00 | 0.00 | 0.00 | 67 | 1013.4 |
| 20260503042959 | 37 | 247 | 0.0 | 0.0 | 0.00 | 0.00 | 0.00 | 67 | 1013.4 |